[[{"header":{"parameterUnit":"m.s-1","parameterCategory":1,"la1":30.2991,"la2":30.254,"lo1":-89.0895,"lo2":-89.0444,"dy":0.0017,"dx":0.0017,"nx":28,"ny":28,"refTime":"2025-09-12T09:00:00:Z","depth":0,"parameterNumber":2,"parameterNumberName":"U-component_of_WINDS"},"data":[0,0,0,0,0,0,0,0,0,0,0,0,0,0,0,0,0,0,0,0,0,0,0,0,0,0,0,0,0,0,0,0,0,0,0,0,0,0,0,0,0,0,0,0,0,0,0,0,0,0,0,0,0,0,0,0,0,0,-2.0619,-2.0619,0,-2.0653,-2.0654,-2.0654,-2.0617,-2.0616,-2.0615,-2.0613,-2.0648,-2.065,-2.0653,0,0,0,0,0,0,0,0,0,0,0,0,0,-2.0522,-2.0524,-2.0619,-2.0619,-2.062,-2.0653,-2.0654,-2.0654,-2.0618,-2.0616,-2.0614,-2.0613,-2.0648,-2.065,-2.0653,0,0,0,0,0,0,0,0,0,0,0,0,0,-2.0561,-2.0525,-2.0619,-2.0606,-2.0605,-2.0653,-2.0654,-2.0654,-2.0618,-2.0616,-2.0614,-2.0612,-2.0647,-2.065,-2.0653,-2.0716,0,0,-2.0664,-2.0665,0,0,0,0,0,0,0,0,-2.0559,-2.0565,-2.0607,-2.0607,-2.0606,-2.0629,-2.0632,-2.0675,-2.0619,-2.0613,-2.0613,-2.0611,-2.0644,-2.0647,-2.0658,-2.0718,-2.072,-2.0664,-2.0666,-2.0667,-2.0668,0,0,0,0,0,0,0,-2.0556,-2.0563,-2.0632,-2.0608,-2.0607,-2.0598,-2.0601,-2.064,-2.064,-2.0613,-2.0611,-2.0615,-2.0643,-2.0655,-2.0659,-2.072,-2.0664,-2.0667,-2.0669,-2.067,-2.0836,-2.0838,0,0,0,0,0,0,-2.0555,-2.0561,-2.0631,-2.0633,-2.0577,-2.0602,-2.0605,-2.0624,-2.0639,-2.0639,-2.0617,-2.0613,-2.065,-2.0655,-2.066,-2.0737,-2.0667,-2.067,-2.0672,-2.0833,-2.0836,-2.0839,0,0,0,0,0,0,-2.0553,-2.0562,-2.063,-2.0597,-2.0605,-2.0605,-2.0626,-2.0625,-2.0638,-2.0642,-2.0642,-2.063,-2.0649,-2.0655,-2.0703,-2.0737,-2.0672,-2.0675,-2.0831,-2.0834,-2.0838,-2.0889,0,0,0,0,0,0,-2.055,-2.0561,-2.0585,-2.0597,-2.0607,-2.0673,-2.0629,-2.0628,-2.0644,-2.0639,-2.0654,-2.0654,-2.0648,-2.0698,-2.0707,-2.0741,-2.0678,-2.0828,-2.0832,-2.0836,-2.0885,-2.0894,-2.0903,0,0,0,0,0,-2.0547,-2.0598,-2.0586,-2.0595,-2.0636,-2.0675,-2.068,-2.0671,-2.0646,-2.0671,-2.0674,-2.0654,-2.0732,-2.0704,-2.0712,-2.0748,-2.0825,-2.0831,-2.0836,-2.0881,-2.0893,-2.0902,0,0,0,0,0,0,-2.0588,-2.0599,-2.0587,-2.0643,-2.0658,-2.0668,-2.0699,-2.0684,-2.0707,-2.0702,-2.069,-2.0694,-2.0745,-2.0751,-2.0719,-2.0811,-2.0775,-2.0782,-2.0806,-2.0817,-2.0825,-2.0824,-2.0681,0,0,0,0,0,-2.0604,-2.0635,-2.0642,-2.0691,-2.0699,-2.0698,-2.0714,-2.0706,-2.0722,-2.0728,-2.0735,-2.0751,-2.0779,-2.0798,-2.0824,-2.0885,-2.0889,-2.0914,-2.0923,-2.093,-2.0937,-2.0972,-2.0984,-2.0856,-2.0856,-2.0856,0,0,-2.0637,-2.0646,-2.0666,-2.0699,-2.071,-2.0743,-2.0704,-2.0739,-2.0763,-2.0733,-2.078,-2.0785,-2.0802,-2.0858,-2.0883,-2.0865,-2.0973,-2.0937,-2.0943,-2.0946,-2.0979,-2.0991,-2.1002,-2.086,-2.0859,-2.0859,0,0,-2.0713,-2.0723,-2.0766,-2.0778,-2.0796,-2.0795,-2.0805,-2.0818,-2.0821,-2.0867,-2.0846,-2.0875,-2.0923,-2.0937,-2.095,-2.1034,-2.1017,-2.1042,-2.1089,-2.1123,-2.1134,-2.1142,-2.1174,-2.1185,-2.1049,-2.1049,-2.1049,0,-2.0752,-2.08,-2.0789,-2.0827,-2.0843,-2.0818,-2.0862,-2.0874,-2.0899,-2.0911,-2.089,-2.0952,-2.0962,-2.1021,-2.1042,-2.1053,-2.1065,-2.1041,-2.1133,-2.1142,-2.115,-2.118,-2.1192,-2.1052,-2.1052,-2.1051,-2.1051,0,-2.0847,-2.0881,-2.0913,-2.0939,-2.0958,-2.0999,-2.0995,-2.1016,-2.1007,-2.1008,-2.1057,-2.1067,-2.1096,-2.1109,-2.11,-2.1168,-2.1157,-2.1135,-2.1098,-2.1165,-2.1194,-2.1205,-2.1057,-2.1055,-2.1055,-2.1054,0,0,-2.0951,-2.0971,-2.0984,-2.0996,-2.1014,-2.104,-2.108,-2.1108,-2.1128,-2.1146,-2.118,-2.1222,-2.1202,-2.1218,-2.121,-2.1239,-2.1307,-2.1214,-2.1214,-2.1233,-2.1385,-2.1403,-2.1416,-2.1296,-2.1298,-2.13,-2.1384,0,-2.1029,-2.1098,-2.1091,-2.1157,-2.1189,-2.1167,-2.1202,-2.1217,-2.122,-2.1247,-2.1249,-2.1281,-2.1251,-2.1261,-2.1289,-2.1293,-2.1338,-2.1287,-2.1329,-2.133,-2.1327,-2.1431,-2.1449,-2.1529,-2.1395,-2.1397,-2.1398,0,-2.113,-2.1153,-2.1223,-2.1238,-2.1251,-2.1283,-2.1309,-2.1335,-2.1353,-2.1353,-2.1371,-2.1358,-2.1399,-2.1361,-2.1417,-2.1383,-2.1399,-2.1404,-2.1407,-2.1412,-2.1369,-2.144,-2.1554,-2.1566,-2.1415,-2.1414,-2.1413,0,-2.1201,-2.1249,-2.1298,-2.1309,-2.1327,-2.135,-2.1359,-2.1374,-2.1392,-2.1416,-2.1428,-2.1455,-2.147,-2.1492,-2.1488,-2.146,-2.1547,-2.1508,-2.1549,-2.155,-2.1569,-2.1569,-2.1689,-2.1577,-2.1577,-2.1577,-2.1577,0,-2.129,-2.1334,-2.133,-2.136,-2.141,-2.1401,-2.145,-2.1455,-2.147,-2.1501,-2.1482,-2.1512,-2.1504,-2.1534,-2.153,-2.1579,-2.1586,-2.1588,-2.1587,-2.1591,-2.1591,-2.1602,-2.1597,-2.158,-2.1579,-2.1579,-2.1578,0,-2.1378,-2.1377,-2.1429,-2.1443,-2.1447,-2.1483,-2.1495,-2.1524,-2.1525,-2.1565,-2.1574,-2.1576,-2.161,-2.1608,-2.1646,-2.1644,-2.1705,-2.1696,-2.1699,-2.1698,-2.1741,-2.1737,-2.1874,-2.1893,-2.1767,-2.1768,-2.1769,0,-2.1436,-2.147,-2.1487,-2.1507,-2.1518,-2.155,-2.1569,-2.1562,-2.1582,-2.1606,-2.1632,-2.1665,-2.1691,-2.1746,-2.1752,-2.1781,-2.1775,-2.1821,-2.1779,-2.1782,-2.1778,-2.1777,-2.1781,-2.1829,-2.1831,-2.1832,-2.1833,0,-2.154,-2.1538,-2.1566,-2.1595,-2.1618,-2.164,-2.166,-2.1678,-2.1673,-2.1697,-2.1732,-2.1752,-2.1792,-2.1825,-2.1854,-2.1863,-2.1848,-2.1846,-2.1857,-2.1862,-2.1864,-2.1866,-2.1724,-2.1843,-2.1842,-2.1841,-2.184,-2.184,-2.1616,-2.1645,-2.1663,-2.1696,-2.171,-2.173,-2.1758,-2.1764,-2.1793,-2.1825,-2.1819,-2.1859,-2.1877,-2.1914,-2.1926,-2.1958,-2.1941,-2.1957,-2.1962,-2.1966,-2.1972,-2.1857,-2.1962,-2.1962,-2.1962,-2.1962,-2.1961,0,-2.172,-2.1731,-2.1761,-2.179,-2.1816,-2.1799,-2.1821,-2.1844,-2.188,-2.1898,-2.1924,-2.1965,-2.1998,-2.2006,-2.2037,-2.2061,-2.2055,-2.207,-2.2069,-2.2072,-2.1984,-2.1972,-2.2075,-2.2075,-2.2075,-2.2075,-2.2075,-2.2075,-2.1777,-2.1828,-2.1828,-2.1886,-2.1896,-2.1935,-2.195,-2.1968,-2.1983,-2.203,-2.2057,-2.2062,-2.2077,-2.211,-2.2139,-2.2141,-2.2154,-2.2172,-2.2171,-2.2089,-2.2078,-2.2067,-2.2056,-2.2175,-2.2175,-2.2257,-2.2258,-2.2258]},{"header":{"parameterUnit":"m.s-1","parameterCategory":1,"la1":30.2991,"la2":30.254,"lo1":-89.0895,"lo2":-89.0444,"dy":0.0017,"dx":0.0017,"nx":28,"ny":28,"refTime":"2025-09-12T09:00:00:Z","depth":0,"parameterNumber":3,"parameterNumberName":"V-component_of_WINDS"},"data":[0,0,0,0,0,0,0,0,0,0,0,0,0,0,0,0,0,0,0,0,0,0,0,0,0,0,0,0,0,0,0,0,0,0,0,0,0,0,0,0,0,0,0,0,0,0,0,0,0,0,0,0,0,0,0,0,0,0,-1.3397,-1.3397,0,-1.3391,-1.3391,-1.3391,-1.3344,-1.3343,-1.3342,-1.3341,-1.3336,-1.3337,-1.3338,0,0,0,0,0,0,0,0,0,0,0,0,0,-1.337,-1.3371,-1.3397,-1.3397,-1.3397,-1.3391,-1.3391,-1.3391,-1.3345,-1.3343,-1.3342,-1.3341,-1.3335,-1.3336,-1.3338,0,0,0,0,0,0,0,0,0,0,0,0,0,-1.3375,-1.3371,-1.3397,-1.3373,-1.3371,-1.3391,-1.3391,-1.3391,-1.3345,-1.3343,-1.3342,-1.334,-1.3335,-1.3336,-1.3338,-1.338,0,0,-1.3342,-1.3343,0,0,0,0,0,0,0,0,-1.3374,-1.3376,-1.3377,-1.3375,-1.3373,-1.3367,-1.3379,-1.3387,-1.3345,-1.3355,-1.3341,-1.3339,-1.3347,-1.3348,-1.335,-1.338,-1.338,-1.3342,-1.3343,-1.3343,-1.3344,0,0,0,0,0,0,0,-1.3374,-1.3376,-1.3395,-1.3377,-1.3374,-1.3363,-1.3362,-1.338,-1.3361,-1.3354,-1.3351,-1.335,-1.3346,-1.3349,-1.335,-1.338,-1.3342,-1.3343,-1.3344,-1.3345,-1.3444,-1.3446,0,0,0,0,0,0,-1.3377,-1.3376,-1.3395,-1.3395,-1.3369,-1.3365,-1.3364,-1.337,-1.3361,-1.3357,-1.3352,-1.3348,-1.3348,-1.3348,-1.335,-1.3399,-1.3343,-1.3345,-1.3346,-1.3442,-1.3444,-1.3446,0,0,0,0,0,0,-1.3377,-1.3379,-1.3395,-1.3384,-1.3385,-1.3367,-1.3375,-1.3371,-1.3374,-1.3359,-1.3355,-1.3359,-1.3346,-1.3348,-1.3373,-1.3398,-1.3345,-1.3347,-1.344,-1.3443,-1.3445,-1.3498,0,0,0,0,0,0,-1.3376,-1.3379,-1.3395,-1.3385,-1.3386,-1.3419,-1.3377,-1.3372,-1.3377,-1.3372,-1.3364,-1.3362,-1.3345,-1.3371,-1.3374,-1.3399,-1.3348,-1.3438,-1.3441,-1.3444,-1.3494,-1.3502,-1.3509,0,0,0,0,0,-1.3375,-1.3411,-1.3396,-1.3399,-1.3406,-1.342,-1.3421,-1.3401,-1.3379,-1.3395,-1.3385,-1.3362,-1.3394,-1.3374,-1.3377,-1.3403,-1.3436,-1.344,-1.3444,-1.349,-1.35,-1.3509,0,0,0,0,0,0,-1.3425,-1.3409,-1.3393,-1.3426,-1.3425,-1.3413,-1.3432,-1.3412,-1.3418,-1.3413,-1.3388,-1.3387,-1.3416,-1.3412,-1.3389,-1.3443,-1.3411,-1.3416,-1.3445,-1.3455,-1.3462,-1.3463,-1.3349,0,0,0,0,0,-1.344,-1.3453,-1.3438,-1.3469,-1.3469,-1.3451,-1.3456,-1.3441,-1.3439,-1.3438,-1.343,-1.343,-1.3439,-1.3447,-1.3455,-1.3493,-1.349,-1.3512,-1.3519,-1.3525,-1.353,-1.355,-1.3559,-1.346,-1.346,-1.346,0,0,-1.3471,-1.3464,-1.3474,-1.3479,-1.3476,-1.349,-1.3451,-1.3468,-1.3478,-1.3441,-1.3464,-1.3458,-1.3456,-1.3487,-1.3501,-1.3485,-1.3557,-1.3531,-1.3536,-1.3537,-1.3555,-1.3564,-1.3573,-1.3462,-1.3462,-1.3462,0,0,-1.3535,-1.353,-1.3555,-1.3553,-1.3549,-1.3537,-1.3543,-1.3533,-1.3528,-1.3551,-1.3523,-1.3535,-1.3553,-1.3552,-1.3554,-1.3616,-1.3595,-1.362,-1.366,-1.3679,-1.3687,-1.3694,-1.3717,-1.3725,-1.3624,-1.3625,-1.3625,0,-1.3574,-1.3594,-1.3571,-1.3589,-1.3592,-1.3559,-1.3584,-1.3583,-1.3582,-1.3585,-1.3567,-1.3588,-1.3584,-1.3615,-1.363,-1.3633,-1.3639,-1.3621,-1.3688,-1.3694,-1.37,-1.3722,-1.373,-1.3628,-1.3627,-1.3627,-1.3627,0,-1.3643,-1.3657,-1.3677,-1.3677,-1.3682,-1.3704,-1.3684,-1.3692,-1.3676,-1.3666,-1.3689,-1.3683,-1.3689,-1.3695,-1.368,-1.3724,-1.3714,-1.3692,-1.366,-1.3713,-1.3733,-1.3741,-1.3632,-1.3631,-1.363,-1.3629,0,0,-1.3739,-1.3724,-1.3733,-1.3732,-1.3724,-1.3735,-1.3755,-1.3761,-1.3768,-1.3769,-1.3785,-1.38,-1.378,-1.3782,-1.3766,-1.3783,-1.3833,-1.3759,-1.3758,-1.3773,-1.3882,-1.3899,-1.3909,-1.3819,-1.382,-1.3821,-1.3882,0,-1.3801,-1.3834,-1.3813,-1.385,-1.3863,-1.383,-1.3848,-1.3845,-1.3836,-1.3845,-1.3835,-1.3846,-1.3818,-1.3819,-1.3834,-1.3824,-1.3855,-1.3819,-1.3834,-1.3835,-1.3837,-1.3919,-1.3937,-1.3995,-1.3889,-1.3891,-1.3892,0,-1.3877,-1.388,-1.3918,-1.3908,-1.3912,-1.3928,-1.3931,-1.3941,-1.3937,-1.3929,-1.3931,-1.3911,-1.393,-1.3897,-1.3923,-1.3899,-1.3904,-1.39,-1.3902,-1.3903,-1.3867,-1.3923,-1.4013,-1.4022,-1.3903,-1.3902,-1.3902,0,-1.3944,-1.3958,-1.3982,-1.3982,-1.3971,-1.3983,-1.3978,-1.3973,-1.3977,-1.398,-1.3983,-1.3988,-1.3992,-1.3996,-1.3978,-1.3956,-1.4006,-1.3972,-1.4001,-1.4001,-1.4014,-1.4013,-1.4106,-1.4016,-1.4015,-1.4015,-1.4015,0,-1.4016,-1.404,-1.4012,-1.4027,-1.4053,-1.4029,-1.4056,-1.4048,-1.4043,-1.4056,-1.4029,-1.4042,-1.4016,-1.4027,-1.4012,-1.4036,-1.4038,-1.4032,-1.4028,-1.4035,-1.4036,-1.4038,-1.4034,-1.4018,-1.4017,-1.4017,-1.4016,0,-1.4096,-1.4078,-1.4102,-1.4088,-1.4086,-1.4106,-1.4094,-1.4108,-1.4096,-1.4113,-1.4115,-1.4097,-1.4107,-1.4089,-1.4098,-1.4088,-1.4122,-1.4111,-1.4123,-1.412,-1.415,-1.4148,-1.4248,-1.426,-1.4162,-1.4163,-1.4163,0,-1.4143,-1.4161,-1.4149,-1.4156,-1.4153,-1.4164,-1.4168,-1.4144,-1.415,-1.4147,-1.4161,-1.4169,-1.4174,-1.4193,-1.418,-1.4187,-1.4177,-1.4212,-1.4178,-1.4184,-1.4178,-1.4177,-1.4179,-1.4219,-1.422,-1.4221,-1.4222,0,-1.4229,-1.4219,-1.4226,-1.423,-1.4235,-1.4237,-1.4237,-1.4244,-1.4219,-1.4227,-1.4237,-1.4241,-1.4249,-1.4258,-1.4261,-1.4257,-1.4236,-1.4232,-1.4239,-1.4247,-1.4253,-1.4251,-1.4143,-1.4231,-1.423,-1.4229,-1.4229,-1.4228,-1.4295,-1.4309,-1.4302,-1.4311,-1.4308,-1.4309,-1.432,-1.4309,-1.4317,-1.4322,-1.4307,-1.4321,-1.4317,-1.4319,-1.4317,-1.4327,-1.4312,-1.4322,-1.4325,-1.4328,-1.4333,-1.4251,-1.4328,-1.4327,-1.4327,-1.4327,-1.4327,0,-1.4379,-1.4373,-1.4381,-1.4382,-1.4388,-1.4366,-1.4365,-1.4372,-1.4384,-1.4381,-1.4387,-1.4399,-1.4407,-1.4395,-1.4401,-1.4412,-1.4402,-1.4414,-1.4413,-1.4413,-1.4346,-1.4339,-1.4422,-1.4422,-1.4422,-1.4422,-1.4422,-1.4422,-1.4425,-1.4448,-1.4436,-1.4458,-1.4451,-1.4464,-1.4465,-1.4465,-1.4463,-1.4477,-1.4483,-1.4475,-1.4468,-1.4474,-1.448,-1.4476,-1.448,-1.4496,-1.4489,-1.4427,-1.4418,-1.4409,-1.4403,-1.4497,-1.4497,-1.4555,-1.4556,-1.4556]}]]